Location: Unspecified
(0.0000°N, 0.0000°E)
Time: 10:32:57
(UTC+00:00)

Explorer 11/Cluster Stage 4 - Pass Details

Date: 05 October 2020
Orbit: 467 x 1258 km, 28.8° (Epoch: 28 October)

Event Time Altitude Azimuth Distance (km) Brightness Sun altitude
Rises 16:18:24 0° 223° (SW) 3,068 10.4 22.4°
Reaches altitude 10° 16:21:21 10° 210° (SSW) 2,008 9.3 21.6°
Maximum altitude 16:25:09 26° 154° (SSE) 1,130 7.4 20.7°
Drops below altitude 10° 16:28:28 10° 96° (E) 1,726 7.8 19.9°
Sets 16:30:48 0° 82° (E) 2,545 8.6 19.3°
